This demonstration page uses our WeatherBlox Daily Observations layout. Learn more.

Left ArrowRight Arrow

39.29038, -76.61219

Hourly Observations for November 14, 2018

Temp ( °F °C ) Dew Point ( °F °C ) Humidity (%) Winds ( mph kmh ) Pressure ( in mb ) Visibility ( mi km ) Precip ( " mm )
12:54 am 00:54 undefined 43 6.1 25 -3.9 49 49 undefined N/A 30.26 1025 N/A 0.00 0.00
1:54 am 01:54 undefined 42 5.6 26 -3.3 53 53 undefined N/A 30.28 1025 N/A 0.00 0.00
2:54 am 02:54 undefined 41 5 21 -6.1 45 45 undefined N/A 30.30 1026 N/A 0.00 0.00
3:54 am 03:54 undefined 40 4.4 20 -6.7 45 45 undefined N/A 30.31 1026 N/A 0.00 0.00
4:54 am 04:54 undefined 40 4.4 21 -6.1 47 47 undefined N/A 30.35 1028 N/A 0.00 0.00
5:54 am 05:54 undefined 39 3.9 20 -6.7 46 46 undefined N/A 30.37 1028 N/A 0.00 0.00
6:54 am 06:54 undefined 39 3.9 21 -6.1 48 48 undefined N/A 30.39 1029 N/A 0.00 0.00
7:54 am 07:54 undefined 39 3.9 21 -6.1 48 48 undefined N/A 30.43 1031 N/A 0.00 0.00
8:54 am 08:54 undefined 40 4.4 20 -6.7 45 45 undefined N/A 30.46 1032 N/A 0.00 0.00
9:54 am 09:54 undefined 41 5 19 -7.2 41 41 undefined N/A 30.48 1032 N/A 0.00 0.00
10:54 am 10:54 undefined 41 5 18 -7.8 39 39 undefined N/A 30.47 1032 N/A 0.00 0.00
11:54 am 11:54 undefined 44 6.7 20 -6.7 38 38 undefined N/A 30.50 1033 N/A 0.00 0.00
12:54 pm 12:54 undefined 44 6.7 17 -8.3 34 34 undefined N/A 30.46 1032 N/A 0.00 0.00
1:54 pm 13:54 undefined 43 6.1 18 -7.8 37 37 undefined N/A 30.45 1031 N/A 0.00 0.00
2:54 pm 14:54 undefined 44 6.7 19 -7.2 37 37 undefined N/A 30.47 1032 N/A 0.00 0.00
3:54 pm 15:54 undefined 43 6.1 18 -7.8 37 37 undefined N/A 30.48 1032 N/A 0.00 0.00
4:54 pm 16:54 undefined 43 6.1 20 -6.7 40 40 undefined N/A 30.48 1032 N/A 0.00 0.00
5:54 pm 17:54 undefined 43 6.1 18 -7.8 37 37 undefined N/A 30.48 1032 N/A 0.00 0.00
6:54 pm 18:54 undefined 42 5.6 20 -6.7 41 41 undefined N/A 30.50 1033 N/A 0.00 0.00
7:54 pm 19:54 undefined 41 5 20 -6.7 43 43 undefined N/A 30.51 1033 N/A 0.00 0.00
8:54 pm 20:54 undefined 40 4.4 18 -7.8 41 41 undefined N/A 30.54 1034 N/A 0.00 0.00
9:54 pm 21:54 undefined 39 3.9 19 -7.2 45 45 undefined N/A 30.54 1034 N/A 0.00 0.00
10:54 pm 22:54 undefined 38 3.3 19 -7.2 46 46 undefined N/A 30.55 1034 N/A 0.00 0.00
11:54 pm 23:54 undefined 38 3.3 19 -7.2 46 46 undefined N/A 30.54 1034 N/A 0.00 0.00

Powered by AerisWeather